Find Starlink 30853

NORAD ID: 58236 Int'l Des: 2023-171 Owner: SPXS Country: US Constellation: starlink operational
LEOCIRCULAR

現在のビュー

3D地球を読み込み中...

About Starlink 30853

Starlink 30853 (NORAD 58236) is a starlink constellation satellite (v2 mini) launched Nov 8, 2023 by SPXS of US. It operates in LEO, CIRCULAR orbit with a mass of 730.00 kg.

Starlink 30853について

説明を読み込み中...

次回通過

Passes for default location (London). Set your location on the main map for personalized predictions.

高度履歴

Loading altitude history...

軌道要素

1 58236U 23171G 26171.03591453 .00000351 00000-0 22297-4 0 9990
2 58236 43.0051 67.5280 0001666 255.1288 104.9380 15.27574036145383
Epoch: Jun 20, 2026 • Age: 34 hours

現在のステータス

高度 482.9 km
速度 7.63 km/s
衛星直下点 20.10°N, 149.97°E
打ち上げ日 Nov 8, 2023
運用期間 2.6 years
タイプ internet

技術仕様

分類 Payload
質量 730.00 kg
乾燥質量 700.00 kg
総質量 730.00 kg
長さ 0.30 m
直径 4.10 m
スパン 29.00 m
形状 Box + pan
製造者 SPXS
バスタイプ Starlink V2M
フェーズステータス In Orbit
所有者/国 SPXS/US

Most Searched